This is the latest recevied weather packets stored in our database for station/object KC8QDR-1. If no packets are shown the sender has not sent any weather packets the latest 10 day(s).
| Time | Temp. | Humidity | Pressure | Rain* | Wind** | Luminosity | Snow |
|---|---|---|---|---|---|---|---|
| 1777982925 | 17.78° C | 70% | 1014.7 hPa | 0 mm | 3.13 m/s, 194° | - | - |
| 1777982325 | 17.78° C | 69% | 1014.5 hPa | 0 mm | 1.79 m/s, 220° | - | - |
| 1777981725 | 17.78° C | 67% | 1014.3 hPa | 0 mm | 1.79 m/s, 196° | - | - |
| 1777981125 | 17.78° C | 67% | 1014.3 hPa | 0 mm | 2.24 m/s, 196° | - | - |
| 1777980525 | 17.78° C | 67% | 1014 hPa | 0 mm | 1.34 m/s, 162° | - | - |
| 1777979925 | 17.78° C | 67% | 1013.8 hPa | 0 mm | 2.24 m/s, 184° | - | - |
| 1777979325 | 17.78° C | 67% | 1013.6 hPa | 0 mm | 1.34 m/s, 224° | - | - |
| 1777978725 | 17.78° C | 66% | 1013.4 hPa | 0 mm | 3.13 m/s, 194° | - | - |
| 1777978125 | 17.78° C | 66% | 1013.4 hPa | 0 mm | 2.24 m/s, 191° | - | - |
| 1777977525 | 17.78° C | 66% | 1013.4 hPa | 0 mm | 1.34 m/s, 206° | - | - |
| 1777976925 | 17.78° C | 66% | 1013.3 hPa | 0 mm | 3.58 m/s, 182° | - | - |
| 1777976325 | 17.78° C | 66% | 1013.1 hPa | 0 mm | 3.58 m/s, 214° | - | - |
| 1777975725 | 17.78° C | 66% | 1013 hPa | 0 mm | 2.68 m/s, 196° | - | - |
| 1777975125 | 17.78° C | 66% | 1012.9 hPa | 0 mm | 1.34 m/s, 196° | - | - |
| 1777974526 | 17.78° C | 67% | 1012.7 hPa | 0 mm | 1.34 m/s, 160° | - | - |
| 1777973925 | 17.78° C | 66% | 1012.8 hPa | 0 mm | 2.24 m/s, 193° | - | - |
| 1777973326 | 17.78° C | 66% | 1012.8 hPa | 0 mm | 2.68 m/s, 200° | - | - |
| 1777972725 | 17.78° C | 65% | 1012.8 hPa | 0 mm | 1.34 m/s, 179° | - | - |
| 1777972125 | 18.33° C | 64% | 1012.7 hPa | 0 mm | 3.13 m/s, 187° | - | - |
| 1777971525 | 18.33° C | 63% | 1012.7 hPa | 0 mm | 1.79 m/s, 187° | - | - |
| 1777970925 | 18.33° C | 64% | 1012.7 hPa | 0 mm | 3.13 m/s, 197° | - | - |
| 1777970325 | 18.33° C | 64% | 1012.8 hPa | 0 mm | 1.79 m/s, 201° | - | - |
| 1777969725 | 18.33° C | 64% | 1012.5 hPa | 0 mm | 2.24 m/s, 242° | - | - |
| 1777969125 | 18.33° C | 65% | 1012.4 hPa | 0 mm | 1.79 m/s, 196° | - | - |
| 1777968525 | 18.33° C | 66% | 1012.4 hPa | 0 mm | 2.24 m/s, 200° | - | - |
* Rain latest hour (hover to see other rain measurements)
** Current wind speed in m/s (hover to see current wind gust speed)